Weather History for F16-a Sea, Netherlands

Change the Weather History Date:

Sunday, December 15, 2013

  Actual Average Record
Temperature  
Mean Temperature 48 °F -  
Max Temperature 51 °F - - ()
Min Temperature 46 °F - - ()
Degree Days  
Heating Degree Days 16    
Moisture  
Dew Point 48 °F    
Average Humidity 93    
Maximum Humidity 100    
Minimum Humidity 82    
Precipitation  
Precipitation 0.00 in - - ()
Sea Level Pressure  
Sea Level Pressure 30.02 in    
Wind  
Wind Speed 36 mph ()    
Max Wind Speed 51 mph    
Max Gust Speed 62 mph    
Visibility 5.5 miles    
Events Rain    
T = Trace of Precipitation, MM = Missing Value Source: Averaged Metar Reports

Daily Weather History Graph

Daily Weather History Graph

Search for Another Location

Airport:

Trip Planner

Search our weather history database for the weather conditions in past years. The results will help you decide how hot, cold, wet, or windy it might be!

Date:

Astronomy

Dec. 15, 2013 Rise Set
Actual Time 8:57 AM CET 4:20 PM CET
Civil Twilight 8:13 AM CET 5:04 PM CET
Nautical Twilight 7:27 AM CET 5:51 PM CET
Astronomical Twilight 6:43 AM CET 6:34 PM CET
Moon 3:25 PM CET (12/15) 6:46 AM CET (12/15)
Length of Visible Light 8h 51m
Length of Day
7h 23m
Waxing Gibbous, 97% of the Moon is Illuminated
Dec 15
Waxing Gibbous
Dec 17
Full
Dec 25
Last Quarter
Jan 1
New
Jan 8
First Quarter

Hourly Weather History & Observations

Time (CET) Temp. Dew Point Humidity Pressure Visibility Wind Dir Wind Speed Gust Speed Precip Events Conditions
12:25 AM 48.2 °F 48.2 °F 100% 29.95 in - Variable 49.5 mph 62.1 mph N/A   Mostly Cloudy
12:55 AM 48.2 °F 48.2 °F 100% 29.95 in - Variable 46.0 mph 57.5 mph N/A   Mostly Cloudy
1:00 AM 48 °F 47 °F 96% 29.96 in 4 mi SSW 42.5 mph - - Rain Light Drizzle
1:25 AM 48.2 °F 46.4 °F 93% 29.95 in - Variable 49.5 mph 62.1 mph N/A   Mostly Cloudy
1:55 AM 48.2 °F 48.2 °F 100% 29.95 in - Variable 47.2 mph - N/A   Mostly Cloudy
2:25 AM 48.2 °F 46.4 °F 93% 29.92 in - Variable 47.2 mph - N/A   Mostly Cloudy
2:55 AM 50.0 °F 46.4 °F 87% 29.92 in - Variable 47.2 mph - N/A   Mostly Cloudy
3:25 AM 50.0 °F 46.4 °F 87% 29.92 in - SSW 44.9 mph - N/A   Mostly Cloudy
3:55 AM 50.0 °F 46.4 °F 87% 29.92 in - SSW 44.9 mph - N/A   Mostly Cloudy
4:25 AM 50.0 °F 48.2 °F 94% 29.92 in - SSW 40.3 mph - N/A   Mostly Cloudy
4:55 AM 50.0 °F 48.2 °F 94% 29.95 in - SW 36.8 mph - N/A   Mostly Cloudy
5:25 AM 50.0 °F 48.2 °F 94% 29.95 in - SW 39.1 mph - N/A   Mostly Cloudy
5:55 AM 50.0 °F 48.2 °F 94% 29.95 in - SW 36.8 mph - N/A   Scattered Clouds
6:25 AM 50.0 °F 48.2 °F 94% 29.98 in - SW 34.5 mph - N/A   Partly Cloudy
6:55 AM 51.8 °F 48.2 °F 88% 30.01 in - WSW 32.2 mph - N/A   Partly Cloudy
7:00 AM 51 °F 48 °F 86% 30.03 in 7 mi WSW 29.1 mph - -   Partly Cloudy
7:25 AM 50.0 °F 48.2 °F 94% 30.04 in - WSW 31.1 mph - N/A   Unknown
7:55 AM 50.0 °F 48.2 °F 94% 30.04 in - WSW 27.6 mph - N/A   Unknown
8:25 AM 51.8 °F 46.4 °F 82% 30.06 in - WSW 26.5 mph - N/A   Unknown
8:55 AM 51.8 °F 46.4 °F 82% 30.06 in - WSW 23.0 mph - N/A   Unknown
9:25 AM 50.0 °F 46.4 °F 87% 30.06 in - WSW 21.9 mph - N/A   Unknown
9:55 AM 50.0 °F 46.4 °F 87% 30.09 in - SW 24.2 mph - N/A   Unknown
10:25 AM 50.0 °F 46.4 °F 87% 30.09 in - SW 24.2 mph - N/A   Unknown
10:55 AM 50.0 °F 46.4 °F 87% 30.09 in - SW 21.9 mph - N/A   Unknown
11:25 AM 50.0 °F 46.4 °F 87% 30.12 in - SW 25.3 mph - N/A   Unknown
11:55 AM 50.0 °F 46.4 °F 87% 30.12 in - SW 26.5 mph - N/A   Unknown
12:25 PM 50.0 °F 46.4 °F 87% 30.09 in - SW 24.2 mph - N/A   Unknown
12:55 PM 50.0 °F 46.4 °F 87% 30.09 in - SW 23.0 mph - N/A   Unknown
1:00 PM 49 °F 46 °F 85% 30.12 in 9 mi SW 17.9 mph - -   Partly Cloudy
1:25 PM 50.0 °F 46.4 °F 87% 30.09 in - Variable 19.6 mph - N/A   Unknown
1:55 PM 48.2 °F 46.4 °F 93% 30.06 in - SSW 27.6 mph - N/A   Unknown
2:25 PM 50.0 °F 46.4 °F 87% 30.09 in - SSW 32.2 mph - N/A   Unknown
2:55 PM 50.0 °F 46.4 °F 87% 30.06 in - SSW 34.5 mph - N/A   Unknown
3:25 PM 50.0 °F 48.2 °F 94% 30.06 in - South 36.8 mph - N/A   Partly Cloudy
3:55 PM 50.0 °F 48.2 °F 94% 30.06 in - SSW 42.6 mph - N/A   Mostly Cloudy
4:25 PM 50.0 °F 48.2 °F 94% 30.04 in - Variable 42.6 mph - N/A   Mostly Cloudy
4:55 PM 50.0 °F 50.0 °F 100% 30.04 in - SSW 41.4 mph - N/A   Overcast
5:25 PM 50.0 °F 50.0 °F 100% 30.04 in - SSW 46.0 mph - N/A   Overcast
5:55 PM 50.0 °F 50.0 °F 100% 30.04 in - SSW 44.9 mph - N/A   Overcast
6:25 PM 50.0 °F 48.2 °F 94% 30.04 in - SSW 50.6 mph - N/A   Overcast
6:55 PM 48.2 °F 48.2 °F 100% 30.01 in - SSW 47.2 mph - N/A   Overcast
7:00 PM 49 °F 48 °F 97% 30.03 in 2 mi South 40.3 mph - - Rain Heavy Drizzle
7:25 PM 50.0 °F 48.2 °F 94% 30.01 in - SSW 47.2 mph - N/A   Overcast
7:55 PM 50.0 °F 48.2 °F 94% 30.01 in - SSW 46.0 mph - N/A   Overcast
8:25 PM 50.0 °F 50.0 °F 100% 30.01 in - SSW 41.4 mph - N/A   Overcast
8:55 PM 50.0 °F 50.0 °F 100% 30.01 in - SSW 44.9 mph - N/A   Overcast
9:25 PM 50.0 °F 50.0 °F 100% 30.01 in - SSW 42.6 mph - N/A   Overcast
9:55 PM 50.0 °F 50.0 °F 100% 29.98 in - SSW 40.3 mph - N/A   Overcast
10:25 PM 50.0 °F 50.0 °F 100% 30.01 in - SSW 42.6 mph - N/A   Overcast
10:55 PM 50.0 °F 50.0 °F 100% 29.98 in - SSW 42.6 mph - N/A   Overcast
11:25 PM 50.0 °F 50.0 °F 100% 29.98 in - SSW 42.6 mph - N/A   Overcast
11:55 PM 51.8 °F 50.0 °F 94% 29.98 in - SSW 43.7 mph - N/A   Overcast